NHX01T EBOS-EBOS

Flight info

Callsign NHX01T
Flight time N/A
Altitude 1000
Route COASTLINE
Aircraft EC45/L-VGD/C

Departure

Time 2026-05-01 14:43
Airport Ostend-Bruges International Airport (EBOS)

Arrival

Time N/A
Airport Ostend-Bruges International Airport (EBOS)
Time Latitude Longitude Altitude Speed Heading
2026-05-01 14:33 51.20124 2.85912 12 ft 0 kts 231°
2026-05-01 14:42 51.20119 2.85902 75 ft 1 kts 354°
2026-05-01 14:42 51.20134 2.85973 389 ft 25 kts 39°
2026-05-01 14:43 51.20510 2.86528 953 ft 86 kts 32°
2026-05-01 14:43 51.21073 2.87256 1117 ft 120 kts 36°
2026-05-01 14:43 51.21531 2.87883 1153 ft 136 kts 40°
2026-05-01 14:43 51.22187 2.89015 1208 ft 136 kts 52°
2026-05-01 14:44 51.22697 2.90222 1206 ft 133 kts 56°
2026-05-01 14:44 51.23713 2.92614 1216 ft 129 kts 58°
2026-05-01 14:44 51.24232 2.93790 1212 ft 130 kts 57°
2026-05-01 14:45 51.24750 2.94971 1212 ft 130 kts 59°
2026-05-01 14:45 51.25701 2.97421 1215 ft 129 kts 64°
2026-05-01 14:45 51.26137 2.98686 1225 ft 130 kts 64°
2026-05-01 14:46 51.26606 2.99902 1228 ft 128 kts 60°
2026-05-01 14:46 51.27618 3.02252 1219 ft 130 kts 58°
2026-05-01 14:46 51.28151 3.03420 1218 ft 131 kts 58°
2026-05-01 14:47 51.28698 3.04582 1215 ft 131 kts 57°
2026-05-01 14:47 51.29254 3.05736 1218 ft 130 kts 56°
2026-05-01 14:47 51.29814 3.06880 1213 ft 132 kts 56°
2026-05-01 14:48 51.30866 3.09243 1216 ft 129 kts 62°
2026-05-01 14:48 51.31319 3.10496 1215 ft 130 kts 66°
2026-05-01 14:48 51.32049 3.13115 1213 ft 129 kts 73°
2026-05-01 14:49 51.32641 3.15810 1217 ft 127 kts 76°
2026-05-01 14:49 51.33076 3.18545 1218 ft 125 kts 92°
2026-05-01 14:50 51.32589 3.20625 1216 ft 120 kts 132°
2026-05-01 14:50 51.30840 3.21630 1218 ft 120 kts 182°
2026-05-01 14:51 51.30004 3.21516 1221 ft 120 kts 184°
2026-05-01 14:51 51.28350 3.21252 1214 ft 121 kts 180°
2026-05-01 14:52 51.26691 3.21489 1217 ft 119 kts 168°
2026-05-01 14:52 51.25888 3.21834 1188 ft 120 kts 161°
2026-05-01 14:52 51.24651 3.22849 1078 ft 91 kts 148°
2026-05-01 14:53 51.24119 3.23412 1000 ft 91 kts 152°
2026-05-01 14:53 51.23519 3.23738 930 ft 93 kts 172°
2026-05-01 14:53 51.22900 3.23552 952 ft 94 kts 201°
2026-05-01 14:53 51.22400 3.22860 861 ft 97 kts 230°
2026-05-01 14:54 51.22059 3.21915 798 ft 100 kts 237°
2026-05-01 14:54 51.21749 3.20902 794 ft 100 kts 237°
2026-05-01 14:54 51.21283 3.20167 773 ft 95 kts 195°
2026-05-01 14:54 51.20673 3.20320 774 ft 91 kts 145°
2026-05-01 14:55 51.20177 3.20940 770 ft 91 kts 141°
2026-05-01 14:55 51.19705 3.21587 769 ft 90 kts 139°
2026-05-01 14:55 51.19416 3.22457 768 ft 95 kts 93°
2026-05-01 14:55 51.19772 3.23345 756 ft 104 kts 36°
2026-05-01 14:56 51.20455 3.23766 765 ft 106 kts 22°
2026-05-01 14:56 51.21173 3.24032 760 ft 108 kts
2026-05-01 14:56 51.21892 3.23689 764 ft 110 kts 328°
2026-05-01 14:56 51.22352 3.22755 762 ft 108 kts 283°
2026-05-01 14:57 51.22258 3.21639 760 ft 101 kts 233°
2026-05-01 14:57 51.21098 3.21310 765 ft 90 kts 158°
2026-05-01 14:57 51.20521 3.21697 763 ft 90 kts 154°
2026-05-01 14:58 51.20050 3.22301 760 ft 92 kts 118°
2026-05-01 14:58 51.20127 3.23304 761 ft 100 kts 59°
2026-05-01 14:58 51.20784 3.23707 757 ft 110 kts 356°
2026-05-01 14:58 51.21368 3.22984 762 ft 110 kts 291°
2026-05-01 14:59 51.21284 3.21873 764 ft 100 kts 227°
2026-05-01 14:59 51.20695 3.21507 767 ft 91 kts 178°
2026-05-01 14:59 51.20060 3.21468 755 ft 93 kts 186°
2026-05-01 14:59 51.19501 3.20917 761 ft 98 kts 225°
2026-05-01 15:00 51.19170 3.19011 770 ft 81 kts 254°
2026-05-01 15:00 51.19081 3.18119 767 ft 86 kts 260°
2026-05-01 15:00 51.19375 3.17286 767 ft 93 kts 330°
2026-05-01 15:01 51.19950 3.17450 762 ft 84 kts 60°
2026-05-01 15:01 51.19886 3.18192 764 ft 72 kts 149°
2026-05-01 15:01 51.19388 3.18321 759 ft 78 kts 172°
2026-05-01 15:01 51.18770 3.18404 753 ft 99 kts 173°
2026-05-01 15:02 51.18016 3.18449 800 ft 117 kts 179°
2026-05-01 15:02 51.17460 3.18464 889 ft 121 kts 174°
2026-05-01 15:02 51.16449 3.19037 1084 ft 117 kts 148°
2026-05-01 15:02 51.15772 3.19792 1167 ft 118 kts 144°
2026-05-01 15:03 51.15049 3.20389 1179 ft 119 kts 164°
2026-05-01 15:03 51.14231 3.20403 1199 ft 118 kts 189°
2026-05-01 15:03 51.13426 3.20075 1208 ft 119 kts 192°
2026-05-01 15:03 51.12625 3.19679 1207 ft 122 kts 196°
2026-05-01 15:04 51.11819 3.19196 1212 ft 124 kts 199°
2026-05-01 15:04 51.11055 3.18650 1219 ft 119 kts 202°
2026-05-01 15:04 51.10310 3.17994 1208 ft 124 kts 209°
2026-05-01 15:04 51.09600 3.17222 1209 ft 125 kts 214°
2026-05-01 15:05 51.08916 3.16357 1229 ft 123 kts 213°
2026-05-01 15:05 51.08191 3.15648 1214 ft 123 kts 204°
2026-05-01 15:05 51.07385 3.15192 1227 ft 121 kts 190°
2026-05-01 15:05 51.06579 3.15058 1210 ft 117 kts 178°
2026-05-01 15:06 51.05756 3.15217 1218 ft 121 kts 167°
2026-05-01 15:06 51.04950 3.15576 1219 ft 120 kts 164°
2026-05-01 15:06 51.04147 3.15880 1211 ft 118 kts 169°
2026-05-01 15:06 51.03335 3.16111 1213 ft 117 kts 172°
2026-05-01 15:07 51.02530 3.16276 1212 ft 117 kts 174°
2026-05-01 15:07 51.01710 3.16445 1218 ft 118 kts 172°
2026-05-01 15:07 51.00931 3.16723 1211 ft 112 kts 165°
2026-05-01 15:07 51.00185 3.17065 1203 ft 115 kts 164°
2026-05-01 15:08 50.99400 3.17432 1212 ft 118 kts 164°
2026-05-01 15:08 50.98614 3.17796 1215 ft 116 kts 166°
2026-05-01 15:08 50.97835 3.18125 1206 ft 118 kts 166°
2026-05-01 15:08 50.97048 3.18419 1212 ft 115 kts 167°
2026-05-01 15:09 50.96265 3.18692 1209 ft 114 kts 168°
2026-05-01 15:09 50.95480 3.18965 1210 ft 115 kts 168°
2026-05-01 15:09 50.94696 3.19235 1202 ft 117 kts 169°
2026-05-01 15:09 50.93891 3.19500 1205 ft 119 kts 169°
2026-05-01 15:10 50.93082 3.19757 1206 ft 117 kts 169°
2026-05-01 15:10 50.91520 3.20198 1197 ft 115 kts 171°
2026-05-01 15:10 50.90712 3.20366 1196 ft 120 kts 173°
2026-05-01 15:11 50.89892 3.20501 1202 ft 116 kts 173°
2026-05-01 15:11 50.88260 3.20659 1202 ft 119 kts 178°
2026-05-01 15:11 50.87427 3.20678 1198 ft 121 kts 178°
2026-05-01 15:12 50.86588 3.20683 1203 ft 120 kts 178°
2026-05-01 15:12 50.84934 3.20888 1197 ft 122 kts 172°
2026-05-01 15:12 50.84095 3.21062 1202 ft 120 kts 172°
2026-05-01 15:13 50.81889 3.22541 1202 ft 118 kts 139°
2026-05-01 15:14 50.80921 3.24639 1197 ft 120 kts 118°
2026-05-01 15:14 50.80673 3.25913 1193 ft 125 kts 106°
2026-05-01 15:14 50.81207 3.28507 1192 ft 131 kts 53°
2026-05-01 15:15 50.82809 3.29932 1200 ft 138 kts 11°
2026-05-01 15:15 50.84514 3.28864 1205 ft 134 kts 304°
2026-05-01 15:16 50.85118 3.26130 1204 ft 134 kts 283°
2026-05-01 15:16 50.85464 3.23331 1190 ft 131 kts 250°
2026-05-01 15:17 50.84049 3.21970 1192 ft 123 kts 198°
2026-05-01 15:18 50.82713 3.18853 1201 ft 132 kts 273°
2026-05-01 15:18 50.83128 3.17524 1198 ft 140 kts 308°
2026-05-01 15:19 50.85452 3.14854 1200 ft 136 kts 304°
2026-05-01 15:19 50.86022 3.12107 1201 ft 133 kts 263°
2026-05-01 15:19 50.85798 3.10770 1199 ft 124 kts 239°
2026-05-01 15:20 50.84827 3.08482 1202 ft 125 kts 240°
2026-05-01 15:20 50.84530 3.07175 1200 ft 126 kts 250°
2026-05-01 15:20 50.84375 3.05807 1209 ft 127 kts 256°
2026-05-01 15:21 50.84272 3.04438 1187 ft 126 kts 261°
2026-05-01 15:21 50.84209 3.03030 1178 ft 128 kts 262°
2026-05-01 15:21 50.84174 3.01640 1072 ft 126 kts 264°
2026-05-01 15:21 50.84170 3.00234 1023 ft 128 kts 267°
2026-05-01 15:22 50.84726 2.97502 991 ft 133 kts 289°
2026-05-01 15:22 50.85031 2.96119 991 ft 132 kts 282°
2026-05-01 15:22 50.85231 2.94710 991 ft 130 kts 274°
2026-05-01 15:23 50.85317 2.93301 985 ft 129 kts 268°
2026-05-01 15:23 50.85323 2.91871 990 ft 128 kts 265°
2026-05-01 15:23 50.85342 2.90482 989 ft 126 kts 268°
2026-05-01 15:23 50.85452 2.89060 979 ft 135 kts 281°
2026-05-01 15:24 50.85925 2.87782 989 ft 136 kts 308°
2026-05-01 15:24 50.86711 2.86943 991 ft 138 kts 336°
2026-05-01 15:24 50.87627 2.86462 986 ft 139 kts 342°
2026-05-01 15:24 50.88546 2.86028 983 ft 137 kts 342°
2026-05-01 15:25 50.89476 2.85633 985 ft 139 kts 343°
2026-05-01 15:25 50.90406 2.85290 990 ft 139 kts 347°
2026-05-01 15:25 50.91346 2.84992 989 ft 137 kts 349°
2026-05-01 15:25 50.92298 2.84741 994 ft 140 kts 350°
2026-05-01 15:26 50.93256 2.84512 999 ft 139 kts 348°
2026-05-01 15:26 50.94188 2.84166 996 ft 137 kts 343°
2026-05-01 15:26 50.95087 2.83670 997 ft 136 kts 337°
2026-05-01 15:26 50.95941 2.83034 995 ft 135 kts 331°
2026-05-01 15:27 50.96752 2.82262 998 ft 137 kts 324°
2026-05-01 15:27 50.97510 2.81370 996 ft 135 kts 318°
2026-05-01 15:27 50.98202 2.80370 1001 ft 134 kts 313°
2026-05-01 15:28 50.99027 2.77803 997 ft 131 kts 284°
2026-05-01 15:28 50.99214 2.76891 1001 ft 130 kts 284°
2026-05-01 15:28 50.99501 2.75522 995 ft 131 kts 285°
2026-05-01 15:29 51.00116 2.72804 1001 ft 131 kts 286°
2026-05-01 15:29 51.00447 2.71444 1004 ft 131 kts 287°
2026-05-01 15:29 51.01200 2.68831 993 ft 132 kts 298°
2026-05-01 15:30 51.02449 2.67376 1004 ft 138 kts 339°
2026-05-01 15:31 51.05802 2.65407 982 ft 108 kts 314°
2026-05-01 15:31 51.06574 2.63483 980 ft 101 kts 287°
2026-05-01 15:32 51.06929 2.61314 986 ft 102 kts 282°
2026-05-01 15:32 51.07915 2.59686 992 ft 108 kts 338°
2026-05-01 15:33 51.10160 2.59989 986 ft 110 kts 11°
2026-05-01 15:34 51.11711 2.62195 979 ft 104 kts 63°